www.pogodaiklimat.ru

Погода и климат >> Архив погоды >> Индия >> Gopalpur


ПОГОДА в Gopalpur

  • Прогноз погоды в Gopalpur
  • Монитор погоды в Gopalpur
  • Климат города

АРХИВ ПОГОДЫ в Gopalpur

Время (UTC), дата Ветер
(напр.,м/с)
 
Видим.   Явления Облачность Т
(С)
Тd
(С)
f
(%)
Тe
(С)
Тes
(С)
Комфортность P
(гПа)
Po
(гПа)
Тmin
(С)
Tmax
(С)
R
(мм)
R24
(мм)
S
(см)
06 13.01 СВ 1 4000 м мгла {туман} ясно +26.0 +21.5 76 +33 +48 очень
душно
1015.8 1016.0
09 13.01 В 2 4000 м ясно +27.0 +20.6 68 +34 +40 очень
душно
1012.7 1013.0
12 13.01 В 1 4000 м ясно +25.0 +20.4 76 +31 +31 очень
душно
1012.6 1013.0 +28.0
15 13.01 штиль 0 4000 м мгла ясно +22.6 +21.1 91 +30 +30 очень
душно
1014.2 1014.0
18 13.01 СЗ 1 2000 м мгла ясно +21.2 +20.9 98 +27 +27 душно 1013.7 1014.0
21 13.01 СЗ 2 2000 м мгла ясно +20.2 +19.6 96 +25 +25 комфорт 1013.0 1013.0
00 14.01 СЗ 2 2000 м мгла ясно +17.8 +16.1 90 +18 +18 1013.7 1014.0
03 14.01 С 2 2000 м мгла ясно +18.6 +16.6 88 +20 +24 1016.1 1016.0 +16.5
06 14.01 В 2 4000 м ясно +26.0 +16.3 55 +29 +42 душно 1016.3 1016.0
09 14.01 В 2 4000 м ясно +27.6 +17.8 55 +32 +39 очень
душно
1013.1 1013.0
12 14.01 В 2 4000 м ясно +25.0 +20.4 76 +31 +31 очень
душно
1013.1 1013.0 +28.6
15 14.01 штиль 0 4000 м мгла ясно +22.6 +20.1 86 +29 +29 очень
душно
1015.4 1015.0
21 14.01 СЗ 1 2000 м мгла ясно +19.0 +17.4 90 +22 +22 комфорт 1014.7 1015.0
00 15.01 СЗ 1 2000 м мгла ясно +18.0 +16.3 90 +19 +19 1014.7 1015.0
03 15.01 С 2 1000 м дымка ясно +18.4 +17.1 92 +20 +25 1017.0 1017.0 +16.7
06 15.01 С 2 4000 м мгла ясно +25.2 +18.6 67 +30 +44 душно 1015.5 1016.0
09 15.01 В 2 4000 м ясно +27.6 +21.6 70 +35 +43 очень
душно
1011.4 1011.0
12 15.01 Ю 2 4000 м ясно +24.2 +21.5 85 +31 +31 очень
душно
1011.3 1011.0 +29.0
15 15.01 штиль 0 4000 м мгла ясно +22.2 +20.0 87 +28 +28 душно 1013.8 1014.0
18 15.01 штиль 0 2000 м мгла ясно +20.0 +18.4 91 +23 +23 комфорт 1014.3 1014.0
21 15.01 С 1 2000 м мгла ясно +18.8 +17.2 90 +21 +21 комфорт 1013.5 1014.0
00 16.01 С 2 2000 м мгла ясно +16.4 +15.0 91 +16 +16 1013.2 1013.0
03 16.01 С 2 4000 м мгла ясно +16.6 +14.1 85 +17 +21 1015.2 1015.0 +15.0
06 16.01 ЮВ 1 4000 м ясно +25.6 +20.7 74 +32 +47 очень
душно
1014.9 1015.0
09 16.01 В 3 4000 м ясно +28.6 +22.7 70 +38 +44 очень
душно
1011.3 1011.0
12 16.01 В 2 4000 м ясно +25.2 +21.9 82 +32 +32 очень
душно
1011.3 1011.0 +29.8
15 16.01 штиль 0 4000 м мгла ясно +22.6 +20.8 90 +30 +30 очень
душно
1013.3 1013.0
18 16.01 С 1 2000 м мгла ясно +20.0 +18.7 92 +24 +24 комфорт 1013.5 1014.0
21 16.01 С 1 2000 м мгла ясно +19.0 +17.7 92 +22 +22 комфорт 1012.6 1013.0
00 17.01 С 2 1000 м дымка ясно +17.6 +16.6 94 +18 +18 1012.5 1013.0
03 17.01 С 2 1000 м дымка ясно +18.8 +17.8 94 +21 +25 комфорт 1015.9 1016.0 +16.3
06 17.01 СВ 1 4000 м мгла 3/3 600 м
[Sc]
+26.0 +20.5 72 +32 +43 очень
душно
1015.5 1016.0
09 17.01 В 2 4000 м ясно +27.6 +22.3 73 +36 +43 очень
душно
1012.3 1012.0
12 17.01 Ю 2 4000 м ясно +24.2 +20.2 78 +30 +30 очень
душно
1012.1 1012.0 +29.0
15 17.01 штиль 0 4000 м мгла ясно +22.2 +21.0 93 +29 +29 очень
душно
1013.6 1014.0
18 17.01 СЗ 1 2000 м мгла ясно +19.6 +19.0 96 +23 +23 комфорт 1013.7 1014.0
21 17.01 СЗ 2 2000 м мгла ясно +18.6 +18.0 96 +20 +20 1012.8 1013.0
00 18.01 СЗ 2 2000 м мгла ясно +15.4 +14.7 96 +15 +15 1012.9 1013.0
03 18.01 С 2 2000 м мгла ясно +16.0 +14.3 90 +16 +21 1016.0 1016.0 +14.0
06 18.01 В 1 4000 м ясно +25.4 +18.8 67 +30 +46 душно 1015.7 1016.0
09 18.01 В 2 4000 м ясно +27.0 +19.3 63 +33 +40 очень
душно
1012.7 1013.0
12 18.01 В 1 4000 м ясно +25.0 +18.4 67 +30 +30 душно 1012.6 1013.0 +28.0
15 18.01 штиль 0 4000 м мгла ясно +21.8 +18.6 82 +27 +27 душно 1014.0 1014.0
18 18.01 СЗ 2 2000 м мгла ясно +18.8 +17.2 90 +21 +21 комфорт 1014.1 1014.0
21 18.01 СЗ 1 2000 м мгла ясно +17.8 +16.1 90 +19 +19 1013.1 1013.0
00 19.01 СЗ 1 2000 м мгла ясно +16.0 +14.3 90 +17 +17 1014.3 1014.0
03 19.01 СЗ 2 2000 м мгла ясно +15.6 +14.2 91 +15 +20 1016.3 1016.0 +14.1
06 19.01 СВ 2 4000 м ясно +26.0 +18.5 63 +31 +44 очень
душно
1016.0 1016.0
09 19.01 В 2 4000 м ясно +27.6 +21.0 67 +35 +42 очень
душно
1013.3 1013.0
12 19.01 В 2 4000 м ясно +24.8 +20.8 78 +31 +31 очень
душно
1013.1 1013.0 +29.3
15 19.01 штиль 0 4000 м ясно +21.2 +17.7 80 +25 +25 комфорт 1014.9 1015.0
18 19.01 штиль 0 2000 м мгла ясно +18.6 +16.3 86 +19 +19 1014.9 1015.0
21 19.01 С 1 2000 м мгла ясно +17.2 +15.5 90 +18 +18 1014.0 1014.0
00 20.01 С 2 2000 м мгла ясно +14.8 +13.4 91 +14 +14 1014.3 1014.0

 

Местоположение метеостанции Gopalpur (Orissa, Индия): широта 19.27 долгота 84.88 высота над уровнем моря 17 м.

В архиве по умолчанию представлена погода в Gopalpur за последнюю неделю. Архивные данные за месяц целиком и за предыдущие месяцы, начиная с января 2011 года, Вы можете получить, выбрав интересующий диапазон дат из раскрывающегося списка и нажав кнопку "Ввод!".

Внимание! Время в таблицах - всемирное. Для получения местного времени необходимо прибавить поправку, которая в Gopalpur равна 5.5 ч.

Смотрите также архив погоды в соседних городах и на ближайших метеорологических станциях:

Погода в Puri (Orissa, Индия) (115 км)
Погода в Kalingapatam (Andhra Pradesh, Индия) (131 км)
Погода в Bhubaneswar (Orissa, Индия) (148 км)
Погода в Phulbani (Orissa, Индия) (149 км)
Погода в Cuttack (Orissa, Индия) (173 км)
Погода в Angul (Orissa, Индия) (175 км)
Погода в Bhawanipatna (Orissa, Индия) (192 км)
Погода в Titlagarh (Orissa, Индия) (201 км)
Погода в Paradip Port (Orissa, Индия) (220 км)
Погода в Koraput (Orissa, Индия) (233 км)

Пояснения к столбцам:

Ветер - указаны скорость ветра в м/с - средняя за 10 мин, порывы в срок и между сроками (в фигурных скобках) и направление, откуда дует ветер: С - северный, СВ - северо-восточный, В - восточный, ЮВ - юго-восточный, Ю - южный, ЮЗ - юго-западный, З - западный, СЗ - северо-западный.
Видимость - горизонтальная дальность видимости в метрах или километрах. При видимости от 1 до 10 км при отсутствии осадков обычно наблюдается дымка, при ухудшении видимости до 1 км и менее - туман. В сухую погоду видимость может ухудшаться дымом, пылью или мглою.
Явления - указаны атмосферные явления, наблюдавшиеся в срок или в последний час перед сроком; фигурными скобками обозначены явления, наблюдавшиеся между сроками (за 1-3 часа до срока); квадратными скобками обозначены град или гололедные отложения с указанием их диаметра в мм.
Облачность - указаны через наклонную черту общая и нижняя облачность в баллах и высота нижней границы облаков в метрах; квадратными скобками обозначены формы облаков: Ci - перистые, Cs - перисто-слоистые, Cc - перисто-кучевые, Ac - высококучевые, As - высокослоистые, Sc - слоисто-кучевые, Ns - слоисто-дождевые, Cu - кучевые, Cb - кучево-дождевые. Подробнее классификацию облаков см. в Атласе облаков (PDF).
T - Температура воздуха - температура, измеренная на высоте 2 м над землей.
Td - Температура точки росы - температура, при понижении до которой содержащийся в воздухе водяной пар достигнет насыщения.
f - Относительная влажность воздуха - влажноcть воздуха, измеренная на высоте 2 м над землей.
Te - Эффективная температура - температура, которую ощущает одетый по сезону человек в тени. Характеристика душности погоды. При расчете учитывается влияние влажности воздуха и скорости ветра на теплоощущения человека.
Tes - Эффективная температура на солнце - температура, которую ощущает человек, с поправкой на солнечный нагрев. Характеристика знойности погоды. Зависит от высоты солнца над горизонтом, облачности и скорости ветра. Ночью, в пасмурную погоду, а также при ветре 12 м/с и более поправка равна нулю.
P - Атмосферное давление - приведенное к уровню моря атмосферное давление.
Po - Атмосферное давление - измеренное на уровне метеостанции атмосферное давление.
Tmin - Минимальная температура - минимум температуры воздуха на высоте 2 м над землей.
Tmax - Максимальная температура - максимум температуры воздуха на высоте 2 м над землей.
R - Количество осадков - Количество выпавших осадков за период времени, мм. При наведении курсора мыши на число - период времени, за который выпало указанное количество осадков.
R24 - Количество осадков - Количество выпавших осадков за 24 часа, мм.
S - Снежный покров - Высота снежного покрова, см. При наведении курсора мыши на число - состояние снежного покрова и степень покрытия местности в баллах.